Muskegon, MI

4:41 AM EDT on October 21, 2019 (GMT -0400)
Muskegon County

Weather History for KMKG - August, 2019

Change the Weather History Date:

Friday, August 30, 2019

  Actual Average Record
Temperature  
Mean Temperature 64 °F 68 °F  
Max Temperature 73 °F 77 °F 90 °F (2010)
Min Temperature 54 °F 59 °F 41 °F (1976)
Degree Days  
Heating Degree Days 2 1  
Month to date heating degree days 1 13  
Since 1 June heating degree days 59 90  
Since 1 July heating degree days 2 24  
Cooling Degree Days 0 4  
Month to date cooling degree days 174 163  
Year to date cooling degree days 545 499  
Since 1 June cooling degree days 542 470  
Growing Degree Days 14 (Base 50)    
Moisture  
Dew Point 51 °F    
Average Humidity 63    
Maximum Humidity 93    
Minimum Humidity 35    
Precipitation  
Precipitation 0.00 in 0.11 in 3.45 in (1993)
Month to date precipitation 2.16 3.27  
Year to date precipitation 27.13 20.46  
Snow  
Snow 0.00 in 0.00 in - ()
Month to date snowfall 0.0 0.0  
Since 1 June snowfall 0.0 0.0  
Since 1 July snowfall 0.0 0.0  
Snow Depth 0.00 in    
Sea Level Pressure  
Sea Level Pressure 30.09 in    
Wind  
Wind Speed 5 mph ()    
Max Wind Speed 14 mph    
Max Gust Speed 19 mph    
Visibility 9.8 miles    
Events Fog    
T = Trace of Precipitation, MM = Missing Value Source: Averaged Metar Reports

Daily Weather History Graph

Daily Weather History Graph

Search for Another Location

Airport or City:

Astronomy

Aug. 30, 2019 Rise Set
Actual Time 7:06 AM EDT 8:23 PM EDT
Civil Twilight 6:37 AM EDT 8:53 PM EDT
Nautical Twilight 6:01 AM EDT 9:28 PM EDT
Astronomical Twilight 5:24 AM EDT 10:05 PM EDT
Moon 7:05 AM EDT (8/30) 9:00 PM EDT (8/30)
Length of Visible Light 14h 15m
Length of Day
13h 16m
New Moon, 0% of the Moon is Illuminated
Aug 30
New Moon
Sep 5
First Quarter
Sep 14
Full
Sep 21
Last Quarter
Sep 28
New

Hourly Weather History & Observations

Time (EDT) Temp. Dew Point Humidity Pressure Visibility Wind Dir Wind Speed Gust Speed Precip Events Conditions
12:55 AM 68.0 °F 57.9 °F 70% 29.90 in 10.0 mi NW 6.9 mph - N/A   Clear
1:55 AM 66.9 °F 57.9 °F 73% 29.92 in 10.0 mi NW 8.1 mph - N/A   Clear
2:55 AM 64.9 °F 57.0 °F 75% 29.94 in 10.0 mi NNW 5.8 mph - N/A   Clear
3:55 AM 63.0 °F 57.0 °F 81% 29.94 in 10.0 mi Calm Calm - N/A   Clear
4:55 AM 57.9 °F 54.0 °F 87% 29.95 in 10.0 mi Calm Calm - N/A   Clear
5:55 AM 55.9 °F 53.1 °F 90% 29.99 in 10.0 mi Calm Calm - N/A   Clear
6:55 AM 54.0 °F 51.1 °F 90% 30.02 in 6.0 mi Calm Calm - N/A Fog Scattered Clouds
7:55 AM 55.9 °F 53.1 °F 90% 30.05 in 10.0 mi SSW 3.5 mph - N/A Fog Shallow Fog
8:55 AM 66.0 °F 57.0 °F 73% 30.07 in 10.0 mi NW 5.8 mph - N/A   Mostly Cloudy
9:55 AM 68.0 °F 55.0 °F 63% 30.09 in 10.0 mi NW 8.1 mph - N/A   Mostly Cloudy
10:55 AM 69.1 °F 53.1 °F 57% 30.08 in 10.0 mi NW 9.2 mph - N/A   Mostly Cloudy
11:55 AM 70.0 °F 53.1 °F 55% 30.11 in 10.0 mi NW 6.9 mph - N/A   Mostly Cloudy
12:55 PM 71.1 °F 51.1 °F 49% 30.12 in 10.0 mi WNW 12.7 mph - N/A   Mostly Cloudy
1:55 PM 71.1 °F 52.0 °F 51% 30.12 in 10.0 mi West 10.4 mph - N/A   Mostly Cloudy
2:55 PM 72.0 °F 43.0 °F 35% 30.12 in 10.0 mi WNW 8.1 mph 18.4 mph N/A   Mostly Cloudy
3:55 PM 71.1 °F 43.0 °F 36% 30.12 in 10.0 mi NW 11.5 mph - N/A   Mostly Cloudy
4:55 PM 70.0 °F 46.0 °F 42% 30.15 in 10.0 mi WNW 12.7 mph - N/A   Mostly Cloudy
5:55 PM 69.1 °F 44.1 °F 40% 30.16 in 10.0 mi WNW 13.8 mph - N/A   Mostly Cloudy
6:55 PM 68.0 °F 43.0 °F 40% 30.17 in 10.0 mi NW 10.4 mph - N/A   Mostly Cloudy
7:55 PM 66.0 °F 44.1 °F 45% 30.19 in 10.0 mi NW 5.8 mph - N/A   Mostly Cloudy
8:55 PM 62.1 °F 46.0 °F 56% 30.20 in 10.0 mi NW 3.5 mph - N/A   Mostly Cloudy
9:55 PM 59.0 °F 46.9 °F 64% 30.22 in 10.0 mi North 3.5 mph - N/A   Mostly Cloudy
10:55 PM 57.9 °F 48.0 °F 70% 30.23 in 10.0 mi North 3.5 mph - N/A   Mostly Cloudy
11:55 PM 57.0 °F 46.9 °F 69% 30.24 in 10.0 mi North 6.9 mph - N/A   Clear